Willard, MO

6:44 AM CST on February 24, 2017 (GMT -0600)
Springfield-Branson Regional

Weather History for KSGF - August, 2013

Change the Weather History Date:

Wednesday, August 28, 2013

  Actual Average Record
Temperature  
Mean Temperature 80 °F 76 °F  
Max Temperature 91 °F 87 °F 102 °F (1984)
Min Temperature 68 °F 65 °F 47 °F (1967)
Degree Days  
Heating Degree Days 0 0  
Month to date heating degree days 0 0  
Since 1 June heating degree days 14 9  
Since 1 July heating degree days 0 0  
Cooling Degree Days 15 11  
Month to date cooling degree days 304 368  
Year to date cooling degree days 1088 1156  
Since 1 June cooling degree days 961 1041  
Growing Degree Days 30 (Base 50)    
Moisture  
Dew Point 68 °F    
Average Humidity 69    
Maximum Humidity 93    
Minimum Humidity 44    
Precipitation  
Precipitation 0.00 in 0.13 in 1.36 in (1977)
Month to date precipitation 5.84 3.15  
Year to date precipitation 38.15 29.71  
Snow  
Snow 0.00 in - - ()
Month to date snowfall 0.0  
Since 1 June snowfall 0.0  
Since 1 July snowfall 0.0  
Snow Depth 0.00 in    
Sea Level Pressure  
Sea Level Pressure 30.04 in    
Wind  
Wind Speed 5 mph (SSW)    
Max Wind Speed 13 mph    
Max Gust Speed 16 mph    
Visibility 10 miles    
Events      
T = Trace of Precipitation, MM = Missing Value Source: NWS Daily Summary

Daily Weather History Graph

Daily Weather History Graph

Search for Another Location

Airport or City:

Trip Planner

Search our weather history database for the weather conditions in past years. The results will help you decide how hot, cold, wet, or windy it might be!

Date:

Astronomy

Aug. 28, 2013 Rise Set
Actual Time 6:41 AM CDT 7:47 PM CDT
Civil Twilight 6:14 AM CDT 8:14 PM CDT
Nautical Twilight 5:42 AM CDT 8:46 PM CDT
Astronomical Twilight 5:08 AM CDT 9:19 PM CDT
Moon No Moon Rise 2:22 PM CDT (8/28)
Length of Visible Light 14h 00m
Length of Day
13h 06m
Waning Gibbous, 47% of the Moon is Illuminated
Aug 28
Waning Gibbous
Sep 5
New
Sep 12
First Quarter
Sep 19
Full
Sep 26
Last Quarter

Hourly Weather History & Observations

Time (CDT) Temp. Heat Index Dew Point Humidity Pressure Visibility Wind Dir Wind Speed Gust Speed Precip Events Conditions
12:52 AM 70.0 °F - 66.0 °F 87% 30.04 in 10.0 mi SSE 4.6 mph - N/A   Clear
1:52 AM 70.0 °F - 66.9 °F 90% 30.02 in 10.0 mi SSE 3.5 mph - N/A   Clear
2:52 AM 70.0 °F - 66.0 °F 87% 30.02 in 10.0 mi Calm Calm - N/A   Clear
3:52 AM 70.0 °F - 66.9 °F 90% 30.01 in 10.0 mi South 5.8 mph - N/A   Clear
4:52 AM 69.1 °F - 66.0 °F 90% 30.01 in 10.0 mi South 4.6 mph - N/A   Clear
5:52 AM 68.0 °F - 66.0 °F 93% 30.03 in 10.0 mi South 4.6 mph - N/A   Clear
6:52 AM 68.0 °F - 64.9 °F 90% 30.04 in 9.0 mi SSE 5.8 mph - N/A   Clear
7:52 AM 72.0 °F - 66.9 °F 84% 30.06 in 10.0 mi South 5.8 mph - N/A   Clear
8:52 AM 75.9 °F - 69.1 °F 79% 30.07 in 10.0 mi South 5.8 mph - N/A   Clear
9:52 AM 82.0 °F 85.5 °F 69.1 °F 65% 30.08 in 10.0 mi SSW 6.9 mph - N/A   Clear
10:52 AM 84.0 °F 87.8 °F 69.1 °F 61% 30.08 in 10.0 mi SW 8.1 mph - N/A   Clear
11:52 AM 87.1 °F 90.6 °F 68.0 °F 53% 30.07 in 10.0 mi WSW 12.7 mph - N/A   Clear
12:52 PM 89.1 °F 93.7 °F 69.1 °F 52% 30.06 in 10.0 mi WSW 10.4 mph - N/A   Partly Cloudy
1:52 PM 90.0 °F 92.8 °F 66.9 °F 46% 30.05 in 10.0 mi West 5.8 mph - N/A   Clear
2:52 PM 89.1 °F 92.1 °F 66.9 °F 48% 30.04 in 10.0 mi West 4.6 mph - N/A   Partly Cloudy
3:52 PM 91.0 °F 94.3 °F 66.9 °F 45% 30.02 in 10.0 mi West 8.1 mph - N/A   Partly Cloudy
4:52 PM 90.0 °F 92.8 °F 66.9 °F 46% 30.02 in 10.0 mi West 9.2 mph - N/A   Clear
5:52 PM 88.0 °F 91.4 °F 68.0 °F 51% 30.02 in 10.0 mi SSW 3.5 mph - N/A   Clear
6:52 PM 88.0 °F 91.4 °F 68.0 °F 51% 30.02 in 10.0 mi West 4.6 mph - N/A   Clear
7:52 PM 82.9 °F 87.5 °F 71.1 °F 67% 30.02 in 10.0 mi Calm Calm - N/A   Clear
8:52 PM 79.0 °F - 70.0 °F 74% 30.04 in 10.0 mi Calm Calm - N/A   Clear
9:52 PM 75.9 °F - 70.0 °F 82% 30.04 in 10.0 mi Calm Calm - N/A   Clear
10:52 PM 75.0 °F - 69.1 °F 82% 30.04 in 10.0 mi Calm Calm - N/A   Clear
11:52 PM 75.0 °F - 69.1 °F 82% 30.04 in 10.0 mi Calm Calm - N/A   Clear